|
NORAD ID: 32076 Int'l Code: 1999-057QQ
Perigee: 718.6 km
Apogee: 741.9 km
Inclination: 98.2 °
Period: 99.3 minutes
Semi major axis: 7101 km
Launch date: October 14, 1999
Source: China/Brazil (CHBZ)
Note: This is SATELLITE DEBRIS
Two Line Element Set (TLE):
1 32076U 99057QQ 13129.15234665 .00010949 00000-0 27834-2 0 4226
2 32076 098.2209 098.5332 0016369 043.1829 319.8819 14.50784261305333
Source:
NASA's NSSDC Master Catalog entry for CBERS 1 DEB
|